Temperature
23 20 20 20 21 22 23 23 23 24 25 24 23 22 23 23 23 22 22 21 21 21 21 21 21 20 20 20 20 19 19 19 18 18 17 17 17 17 17 17 17 16 16 16
20 20 21 22 23 23 23 23 23 23 24 24 22 22 22 22 22 22 22 21 20 20 20 20 20 20 20 20 19 19 19 18 18 18 17 17 17 17 17 16 16 16 16 16
20 21 23 23 23 23 23 23 23 23 23 23 22 21 21 21 22 22 22 21 20 20 20 20 20 20 19 19 19 19 18 18 18 18 17 17 17 16 16 16 16 16 16 16
21 22 23 23 23 23 22 24 24 24 22 20 21 20 20 20 20 20 20 20 19 20 20 20 19 19 19 19 19 18 18 18 17 17 17 17 17 16 17 16 16 16 16 16
21 23 23 23 23 24 23 24 24 23 21 20 20 19 19 19 20 19 19 19 19 19 19 19 19 19 19 19 18 18 18 17 17 17 17 17 17 17 16 16 16 16 16 16
22 23 23 23 24 24 24 23 22 20 19 19 20 19 19 18 19 19 19 19 19 19 19 19 19 19 18 18 18 18 17 17 17 17 17 17 16 16 16 16 16 16 16 16
22 23 24 24 24 24 23 20 19 19 18 18 19 19 18 19 19 19 19 19 19 19 18 18 18 18 18 18 17 17 17 17 17 17 17 16 16 16 16 16 16 16 16 15
21 21 23 24 23 23 22 20 19 19 19 18 19 18 18 19 19 19 19 19 18 18 18 18 18 18 18 17 17 17 17 17 17 17 16 16 16 16 16 16 16 16 16 15
20 21 23 24 24 23 22 20 20 18 19 18 18 19 19 19 18 18 18 18 18 18 18 18 18 18 17 17 17 17 17 17 17 16 16 16 16 16 16 16 15 15 15 15
21 21 23 24 24 23 22 21 18 18 18 18 19 18 18 18 17 18 17 17 18 18 18 18 17 17 17 17 17 17 17 17 16 16 16 16 16 16 15 15 15 15 15 15
21 20 21 22 22 22 22 21 19 17 17 18 18 18 19 17 17 17 17 17 18 18 18 17 17 17 17 17 17 16 16 16 16 16 16 16 16 15 15 15 15 15 15 15
20 18 19 21 22 23 22 21 19 18 18 17 17 17 19 17 17 17 17 17 18 18 18 17 17 17 17 17 16 16 16 16 16 16 15 16 15 15 15 15 15 15 15 14
20 18 18 19 20 21 22 21 20 17 16 16 17 17 18 17 17 17 17 17 17 17 17 17 16 16 16 16 16 16 16 16 16 15 15 15 15 15 15 15 15 15 15 14
20 17 17 18 19 19 20 21 20 18 16 17 17 17 17 16 16 16 16 16 16 16 16 16 16 16 16 16 16 16 16 16 15 15 15 15 15 15 15 15 15 14 14 14
18 17 18 19 20 20 21 21 20 19 18 17 17 17 16 16 16 16 16 16 16 16 16 16 16 16 16 16 16 16 16 15 15 15 15 15 15 15 15 14 14 14 14 14
16 17 18 19 20 20 20 20 20 20 19 18 17 16 16 16 16 15 15 16 16 16 16 16 16 16 16 16 16 16 15 15 15 15 15 15 15 15 14 14 14 14 14 14
15 16 16 17 19 19 18 18 19 18 18 17 16 16 15 15 15 15 15 16 16 16 15 15 15 16 16 16 16 15 15 15 15 15 15 15 15 14 14 14 14 14 14 14
15 15 14 15 17 17 17 18 18 17 17 17 16 16 16 15 15 15 16 16 16 16 15 15 15 15 15 15 15 15 15 15 15 15 15 14 14 14 14 14 14 14 14 13
15 15 14 14 16 16 17 18 18 17 16 16 15 15 15 15 15 15 16 16 16 16 15 15 15 15 15 15 15 15 15 15 15 14 14 14 14 14 14 14 14 14 13 13
15 14 14 15 16 16 16 17 18 17 15 15 15 15 15 15 14 14 15 15 15 15 15 15 15 15 14 14 15 15 14 14 14 14 14 14 14 14 14 14 14 13 13 13
15 14 14 14 15 15 15 17 18 16 15 15 15 15 15 14 14 15 15 15 15 15 15 14 14 14 14 14 14 14 14 14 14 14 14 14 14 14 14 13 13 13 13 13
14 13 13 13 14 14 15 16 15 14 15 15 15 15 15 15 15 15 15 15 15 15 15 14 14 14 14 14 14 14 14 14 13 14 14 14 14 13 13 13 13 13 13 13
13 12 12 12 13 13 14 14 15 15 15 15 15 15 15 15 15 15 15 14 14 14 14 14 14 14 14 14 14 14 14 13 13 13 13 13 13 13 13 13 13 13 13 13
13 12 12 12 12 13 14 14 14 15 15 15 15 15 15 15 14 14 14 14 14 14 14 14 13 13 13 13 13 13 13 13 13 13 13 13 13 13 12 13 13 13 12 12
12 12 11 11 12 12 13 13 14 14 14 15 15 15 15 15 14 14 14 14 14 14 13 13 13 13 13 13 13 13 13 13 13 13 12 12 12 12 12 12 12 12 12 12
11 11 11 11 11 11 12 13 13 13 14 14 14 14 14 14 14 13 13 13 13 13 13 13 13 13 13 13 12 12 12 12 12 12 12 12 12 12 12 12 12 12 12 12
Wind_Speed
3 3 6 9 8 8 6 6 8 8 5 1 3 3 3 2 5 5 5 5 6 7 5 6 8 8 7 7 8 7 6 6 6 4 4 3 3 3 3 3 4 5 6 6
1 7 12 9 7 7 7 7 8 6 3 0 1 2 3 1 3 6 7 7 7 7 6 6 7 7 7 7 7 7 7 6 6 5 3 2 3 2 3 2 3 4 4 5
9 8 7 8 8 8 9 8 7 6 4 3 2 4 5 2 1 2 5 7 8 9 9 8 8 7 8 7 7 6 5 5 5 5 4 3 3 3 2 2 2 2 3 4
8 9 7 7 8 8 9 9 6 5 2 3 1 2 6 3 1 1 3 5 5 6 8 8 9 8 7 7 6 6 5 5 5 5 6 6 5 3 2 2 2 2 3 3
7 7 7 9 11 9 9 7 4 4 2 2 2 2 6 2 1 2 2 5 4 5 7 8 8 8 7 7 6 5 5 4 5 5 6 6 4 3 2 3 3 2 2 2
9 7 7 10 10 8 5 1 3 3 3 2 4 3 4 3 4 2 2 4 5 5 6 6 6 6 6 6 6 6 5 4 4 5 6 6 6 5 5 4 4 2 2 2
6 7 6 5 5 4 2 4 3 4 3 4 2 2 4 5 3 3 3 4 4 4 5 7 7 7 6 6 6 7 7 5 4 5 5 6 6 6 6 5 4 4 2 2
5 7 6 5 7 6 4 8 7 4 5 4 1 3 4 3 3 4 6 5 5 5 5 6 7 6 6 7 6 7 7 6 5 5 4 5 5 5 4 4 4 4 3 2
6 7 5 5 5 7 4 4 8 6 2 1 2 1 3 2 2 3 5 5 4 6 6 6 6 5 6 7 6 6 6 5 5 5 5 4 5 5 5 4 4 3 2 2
5 4 5 4 1 2 7 7 5 5 3 2 2 3 4 3 3 2 3 4 3 5 6 6 5 4 5 5 5 4 5 5 4 4 4 4 4 5 5 5 4 4 3 3
3 4 4 1 3 4 2 3 4 5 6 5 3 5 5 8 7 6 4 3 4 6 7 6 5 5 5 5 6 5 5 5 5 4 4 4 4 4 4 4 4 4 3 3
2 4 3 5 5 5 5 6 7 5 4 5 5 5 3 6 6 6 4 3 4 6 6 6 5 4 5 5 5 5 5 5 4 4 4 4 4 5 5 4 4 4 4 3
2 4 1 4 5 3 1 2 4 6 5 5 5 4 1 2 4 4 4 4 4 7 7 5 5 4 4 5 5 5 5 4 4 4 4 4 4 4 4 3 3 4 4 4
3 4 5 7 5 2 2 2 2 5 4 4 5 5 1 1 3 3 4 4 4 6 6 6 4 3 3 4 4 5 4 4 5 5 4 4 4 4 4 3 3 3 4 4
4 3 2 2 2 0 3 3 2 4 6 6 6 6 5 4 5 5 5 5 5 5 5 6 6 4 3 3 3 4 4 4 4 5 4 3 3 4 4 4 4 3 4 4
3 3 1 2 2 3 4 3 1 3 3 5 7 3 3 3 4 5 5 6 5 5 5 6 5 5 4 4 4 3 3 4 5 5 5 3 3 3 3 4 4 4 3 3
1 3 2 2 2 4 3 3 1 2 2 5 5 5 5 5 5 6 5 5 5 5 5 6 5 5 5 4 4 4 4 3 4 5 4 3 3 3 4 4 4 4 4 3
4 3 3 1 2 1 4 1 4 6 3 3 4 5 7 5 5 4 5 5 3 4 5 6 4 3 3 2 3 3 3 3 4 3 3 3 3 3 3 4 4 4 3 3
6 6 3 3 3 2 2 2 1 4 1 1 4 5 5 5 5 2 2 3 4 5 5 6 5 4 3 3 3 4 3 3 3 3 3 3 3 3 3 4 5 4 4 3
4 5 4 3 3 4 4 4 1 5 1 2 4 5 5 6 4 2 1 2 3 4 4 4 4 4 4 3 4 5 4 3 2 2 3 3 4 4 4 4 4 4 4 4
2 2 3 3 3 3 3 6 1 3 4 2 3 4 5 4 5 4 3 3 3 4 5 5 4 4 4 4 5 4 4 2 2 2 2 2 2 4 4 3 3 3 4 3
1 2 2 3 3 4 4 2 2 3 2 2 2 3 4 4 4 5 5 4 4 4 4 4 4 3 3 4 5 4 2 2 2 2 2 2 2 2 2 2 2 3 4 4
2 1 2 2 3 2 1 2 2 3 3 2 2 2 5 5 5 5 5 5 5 4 4 3 3 2 2 3 5 4 3 2 2 2 1 1 1 1 1 2 3 3 3 3
3 2 2 2 1 2 3 4 4 4 3 2 2 3 5 5 6 5 5 4 4 4 3 3 4 3 2 2 3 3 2 2 3 2 1 0 0 1 1 1 3 3 4 4
3 3 2 1 1 3 4 4 4 3 3 3 2 3 5 7 5 4 4 3 3 3 3 3 3 3 2 2 2 2 2 3 3 2 1 0 0 0 0 1 1 3 4 6
2 1 2 2 3 2 2 2 2 2 2 2 3 2 3 5 6 5 4 2 2 3 3 3 3 2 2 2 2 2 2 3 3 2 0 0 0 0 0 0 1 2 2 5
Wind_Direction
221 139 227 231 218 224 247 263 274 275 268 181 205 232 249 199 137 141 145 151 159 157 150 136 139 138 130 129 132 137 135 134 130 128 129 137 160 158 151 163 166 161 158 151
342 243 233 226 236 243 255 265 274 286 298 287 246 303 280 207 172 172 161 152 146 137 133 142 141 136 137 139 142 140 143 145 144 146 147 160 148 155 158 158 149 153 149 148
210 237 228 225 245 248 257 243 244 263 323 23 74 333 309 295 140 156 152 147 146 150 159 161 154 151 147 149 147 144 146 148 148 141 131 119 90 85 89 108 134 143 140 138
231 241 234 237 240 226 255 250 235 248 290 290 137 249 281 281 5 110 144 141 153 157 160 162 157 158 159 159 146 140 151 148 144 140 143 143 140 140 158 150 145 130 119 128
234 223 221 235 242 225 233 244 230 236 220 292 324 155 279 338 289 253 184 155 154 156 163 163 163 163 158 154 149 150 152 150 148 147 149 146 135 138 128 125 127 123 117 121
244 245 214 222 241 232 220 36 6 28 76 289 258 173 265 262 224 216 156 138 144 153 149 147 144 143 142 142 148 147 150 150 151 147 143 144 145 140 133 135 141 140 130 124
265 266 248 220 238 255 147 98 25 351 359 251 253 157 244 248 199 166 146 129 133 130 127 136 136 139 138 141 156 157 153 156 154 144 145 149 151 147 150 154 153 149 141 138
218 263 243 219 202 206 189 146 162 200 222 256 294 205 243 238 160 135 130 121 118 115 120 134 144 143 149 153 155 157 157 157 155 146 145 151 151 146 147 149 150 154 159 165
194 243 259 232 204 173 177 185 177 156 206 206 251 240 317 19 87 106 116 110 120 136 137 140 141 141 150 154 154 153 148 140 139 137 129 125 131 131 132 133 131 136 142 145
174 229 272 263 139 204 167 161 108 130 176 230 256 228 215 213 186 162 140 149 150 146 143 138 129 127 141 147 135 129 127 131 125 132 143 134 125 129 130 126 126 127 124 117
160 183 278 328 184 197 147 138 137 144 159 160 216 257 211 195 191 174 178 183 169 151 142 135 130 130 132 131 128 130 128 125 130 137 138 131 122 122 120 122 128 133 129 126
172 145 234 254 250 201 168 171 155 163 200 167 171 251 255 189 174 162 169 171 148 140 135 125 119 118 125 128 134 142 139 137 140 139 131 127 119 120 123 126 131 133 134 136
135 115 80 333 329 350 88 164 156 145 140 162 172 240 305 126 136 152 146 133 135 131 125 117 112 124 133 133 138 143 142 143 140 135 128 121 124 130 140 146 143 138 135 129
115 116 162 196 223 246 277 272 158 131 158 188 194 190 211 141 145 135 121 117 121 130 129 131 128 124 128 130 137 136 135 139 142 134 132 136 144 147 152 150 144 143 141 139
92 125 170 221 225 228 303 290 219 174 182 181 186 176 200 188 157 148 138 135 128 136 137 143 144 143 137 140 150 146 149 150 145 135 135 153 164 154 145 148 152 146 147 153
58 131 101 338 344 3 337 320 224 170 153 142 131 161 202 156 124 123 137 139 141 151 158 156 152 146 150 162 167 159 159 160 147 144 154 160 153 154 159 162 154 144 147 148
65 120 110 243 299 18 338 310 176 125 116 151 173 186 154 129 146 155 160 154 160 157 145 140 147 153 164 168 164 166 172 159 149 154 160 164 160 167 178 171 157 163 163 144
142 121 130 157 56 208 240 313 119 119 102 139 143 153 154 155 163 157 162 156 152 152 140 132 132 145 159 168 154 156 152 143 148 159 168 165 166 180 186 171 172 179 172 163
151 138 130 136 160 220 276 302 122 140 128 184 150 150 140 122 94 74 142 147 160 157 152 151 156 151 140 142 144 141 144 146 144 158 177 180 175 181 185 188 189 185 173 175
79 106 129 153 162 204 243 294 310 111 153 261 151 153 149 127 131 214 176 108 121 127 131 127 124 118 127 143 133 126 133 128 146 173 180 187 184 186 197 206 197 183 176 184
58 60 143 172 186 231 283 307 19 150 209 227 161 154 148 160 179 181 147 120 127 127 127 128 123 124 142 145 127 125 131 153 196 194 181 180 189 194 195 196 194 176 174 172
142 146 171 150 159 242 320 20 113 181 190 152 132 149 143 141 130 129 124 122 123 123 127 128 127 135 154 147 136 131 154 192 182 168 167 176 186 197 187 181 192 177 172 176
57 154 164 161 190 251 322 115 138 132 117 117 131 154 144 134 136 134 129 134 138 137 141 141 143 141 154 157 149 154 191 176 145 125 136 187 196 216 186 181 188 185 182 187
352 32 90 60 24 12 30 55 63 79 93 105 123 127 128 129 131 129 128 131 128 128 138 139 138 139 168 171 158 167 174 147 128 125 109 6 310 308 305 206 197 193 195 195
319 4 59 78 334 22 29 33 25 29 58 71 72 107 129 126 126 128 127 127 136 138 139 139 145 153 176 163 154 159 148 134 122 125 129 341 349 302 325 289 223 209 211 200
319 270 167 210 222 179 252 328 17 33 71 108 103 92 115 128 132 123 128 134 136 138 138 138 136 143 160 152 150 149 140 140 138 143 199 241 41 215 212 188 338 333 257 234
Height
1479 1487 1491 1487 1486 1488 1487 1489 1490 1483 1474 1478 1482 1482 1479 1477 1477 1478 1480 1481 1481 1483 1486 1487 1488 1490 1491 1493 1493 1495 1495 1497 1498 1499 1500 1501 1502 1504 1505 1506 1507 1507 1508 1508
1484 1487 1478 1477 1479 1482 1485 1489 1488 1481 1473 1477 1482 1483 1478 1476 1476 1476 1477 1479 1480 1483 1485 1486 1487 1489 1490 1492 1493 1493 1494 1495 1497 1498 1499 1501 1501 1502 1504 1505 1506 1506 1507 1507
1484 1477 1472 1475 1478 1481 1481 1485 1484 1482 1477 1477 1482 1488 1482 1477 1476 1476 1477 1478 1479 1481 1483 1485 1486 1487 1489 1490 1491 1492 1493 1494 1496 1497 1499 1500 1500 1501 1503 1504 1505 1505 1506 1507
1477 1470 1471 1474 1475 1476 1483 1472 1473 1476 1485 1494 1487 1504 1488 1480 1478 1478 1478 1479 1479 1481 1482 1483 1484 1485 1487 1489 1490 1492 1494 1494 1495 1496 1498 1498 1498 1499 1501 1502 1504 1504 1505 1506
1472 1467 1468 1472 1469 1468 1472 1466 1470 1474 1483 1493 1491 1501 1495 1482 1483 1480 1478 1478 1478 1479 1480 1481 1482 1484 1486 1488 1490 1492 1493 1494 1495 1495 1496 1498 1498 1500 1501 1502 1503 1504 1504 1505
1465 1460 1461 1462 1460 1461 1463 1469 1473 1480 1490 1504 1494 1500 1499 1488 1482 1478 1477 1477 1478 1478 1479 1480 1482 1484 1486 1487 1489 1491 1492 1493 1494 1494 1495 1497 1498 1499 1500 1501 1502 1503 1504 1505
1467 1461 1457 1456 1461 1461 1465 1484 1502 1504 1510 1508 1491 1496 1496 1480 1475 1475 1476 1476 1477 1478 1478 1479 1481 1483 1484 1486 1488 1490 1491 1492 1493 1494 1495 1497 1498 1499 1499 1501 1502 1502 1503 1504
1476 1474 1457 1453 1457 1463 1466 1478 1502 1512 1512 1505 1493 1497 1488 1476 1474 1474 1474 1475 1476 1478 1479 1479 1480 1481 1484 1486 1487 1488 1489 1491 1492 1494 1495 1496 1497 1498 1499 1500 1501 1502 1503 1504
1471 1470 1450 1448 1447 1454 1465 1473 1475 1493 1497 1505 1499 1490 1482 1475 1475 1475 1475 1476 1477 1478 1479 1479 1480 1481 1483 1484 1485 1487 1489 1491 1492 1493 1495 1496 1497 1498 1499 1500 1501 1502 1503 1504
1457 1466 1453 1447 1447 1450 1454 1462 1480 1492 1505 1509 1500 1494 1492 1481 1479 1477 1476 1476 1476 1476 1477 1478 1480 1481 1483 1484 1485 1487 1489 1491 1492 1493 1494 1495 1496 1498 1499 1500 1501 1502 1503 1504
1452 1464 1460 1453 1455 1457 1458 1464 1474 1487 1492 1504 1508 1499 1475 1475 1474 1474 1475 1475 1475 1475 1476 1477 1480 1481 1483 1484 1485 1486 1489 1491 1492 1493 1494 1495 1496 1498 1499 1500 1501 1503 1504 1504
1451 1462 1469 1459 1448 1445 1450 1457 1469 1486 1491 1492 1499 1495 1469 1469 1469 1471 1473 1474 1475 1475 1476 1478 1480 1481 1483 1484 1485 1486 1489 1490 1492 1493 1494 1496 1497 1498 1499 1500 1501 1503 1504 1505
1450 1463 1475 1471 1463 1453 1453 1454 1460 1470 1482 1490 1496 1490 1470 1469 1470 1472 1473 1474 1475 1475 1476 1478 1480 1482 1482 1483 1485 1487 1489 1490 1492 1493 1494 1496 1497 1498 1499 1500 1502 1503 1504 1505
1446 1461 1471 1476 1470 1460 1458 1455 1456 1467 1482 1484 1482 1480 1475 1473 1472 1474 1474 1475 1476 1477 1477 1478 1480 1482 1483 1484 1486 1487 1489 1491 1492 1493 1494 1495 1497 1498 1499 1500 1501 1502 1503 1504
1448 1460 1458 1457 1453 1453 1455 1454 1455 1461 1466 1474 1474 1475 1474 1473 1472 1473 1474 1474 1476 1478 1478 1479 1480 1482 1484 1485 1486 1487 1489 1490 1491 1492 1494 1495 1497 1498 1499 1499 1500 1501 1502 1503
1451 1458 1458 1458 1452 1453 1455 1454 1454 1456 1459 1464 1468 1474 1470 1471 1472 1473 1473 1474 1475 1477 1479 1480 1481 1482 1483 1485 1486 1487 1489 1490 1491 1492 1493 1494 1495 1497 1497 1498 1499 1500 1501 1502
1455 1459 1464 1467 1457 1456 1466 1460 1457 1458 1458 1461 1469 1471 1469 1471 1472 1473 1473 1474 1474 1476 1478 1479 1480 1482 1483 1485 1486 1487 1488 1489 1490 1491 1492 1493 1494 1495 1496 1497 1498 1498 1499 1500
1455 1460 1467 1469 1466 1477 1469 1455 1454 1457 1459 1460 1462 1465 1466 1468 1470 1472 1473 1473 1474 1476 1477 1478 1479 1481 1483 1485 1485 1486 1488 1489 1490 1490 1491 1492 1494 1494 1495 1496 1496 1497 1498 1498
1448 1457 1467 1473 1475 1471 1463 1457 1456 1459 1465 1461 1462 1464 1466 1467 1469 1471 1472 1472 1473 1475 1476 1477 1479 1480 1482 1484 1485 1486 1487 1488 1489 1489 1490 1491 1492 1493 1493 1494 1494 1495 1496 1497
1449 1453 1464 1469 1473 1476 1466 1456 1453 1457 1467 1462 1462 1463 1465 1466 1473 1473 1471 1471 1473 1474 1476 1477 1479 1480 1481 1483 1484 1485 1486 1486 1487 1488 1489 1490 1491 1491 1491 1491 1492 1493 1494 1495
1459 1460 1464 1469 1471 1468 1460 1455 1453 1467 1468 1462 1461 1461 1463 1464 1466 1468 1468 1470 1472 1473 1475 1477 1478 1479 1480 1482 1483 1483 1484 1485 1486 1487 1488 1488 1489 1489 1489 1490 1490 1491 1492 1493
1462 1465 1466 1468 1473 1472 1458 1456 1459 1462 1460 1460 1460 1460 1461 1463 1465 1467 1468 1470 1471 1472 1474 1475 1476 1477 1479 1480 1481 1482 1483 1484 1485 1486 1486 1486 1487 1487 1487 1488 1487 1488 1490 1491
1462 1463 1465 1467 1469 1462 1458 1457 1458 1458 1459 1460 1460 1461 1462 1463 1464 1465 1467 1469 1471 1471 1473 1474 1475 1476 1477 1479 1479 1480 1481 1482 1483 1483 1483 1484 1484 1484 1485 1485 1486 1486 1487 1488
1461 1459 1463 1465 1463 1461 1459 1458 1458 1459 1459 1460 1460 1461 1462 1463 1463 1464 1466 1468 1470 1471 1472 1473 1474 1475 1476 1477 1478 1479 1479 1480 1480 1481 1481 1481 1481 1482 1482 1483 1484 1484 1485 1485
1463 1462 1464 1465 1464 1462 1461 1460 1460 1460 1459 1459 1460 1461 1462 1462 1463 1465 1466 1468 1469 1470 1471 1473 1473 1474 1475 1476 1476 1477 1478 1478 1479 1479 1479 1480 1479 1480 1480 1481 1482 1482 1483 1483
1464 1464 1465 1466 1464 1464 1463 1461 1461 1461 1460 1459 1460 1461 1461 1462 1463 1464 1466 1467 1468 1470 1471 1471 1472 1473 1474 1475 1475 1476 1477 1477 1477 1478 1478 1478 1478 1478 1479 1479 1479 1480 1480 1481